Regional Weather Roundup
Issued by NWS New Orleans/Baton Rouge, LA

Home | Current Version | Previous Version | Text Only | Print | Product List | Glossary On
Versions: 1 2 3 4 5 6 7 8 9 10 11 12 13 14 15 16 17 18 19 20 21 22 23 24 25 26 27 28 29 30 31 32 33 34 35 36 37 38 39 40 41 42 43 44 45 46 47 48 49 50
709
ASUS44 KLIX 211910
RWRLIX
NEW ORLEANS REGIONAL WEATHER ROUNDUP
NATIONAL WEATHER SERVICE NEW ORLEANS LA
200 PM CDT TUE OCT 21 2014

NOTE: "FAIR" INDICATES FEW OR NO CLOUDS BELOW 12,000 FEET WITH NO
      SIGNIFICANT WEATHER AND/OR OBSTRUCTIONS TO VISIBILITY.
      SKY/WX - SKY CONDITION AND SIGNIFICANT WEATHER.
      TMP - AIR TEMPERATURE.     DP    - DEWPOINT TEMPERATURE.
      RH  - RELATIVE HUMIDITY.   PRES  - PRESSURE.
      HI  - HEAT INDEX.          WCI   - WIND CHILL INDEX.

*  THESE STATIONS ARE NOT NWS OR FAA STATIONS AND ARE NOT UNDER
   NWS QUALITY CONTROL.

LAZ038-040-048-061>063-065>067-069-212000-
SOUTHEAST LOUISIANA

CITY           SKY/WX    TMP DP  RH WIND       PRES   REMARKS
N.O. AUDUBON     N/A     82  56  40 MISG        N/A
N.O. INTL ARPT SUNNY     78  52  40 NE9       30.01F
N.O. LAKEFRONT SUNNY     78  53  41 NE7       30.01F
N.O. DOWNTOWN*   N/A     79  52  38 E6        30.01F
SLIDELL        SUNNY     80  53  39 NE7       30.00F
BATON ROUGE    SUNNY     80  53  39 VRB6      30.02F
BOOTHVILLE     SUNNY     76  59  55 NE13      30.00F
BELLE CHASSE   MOSUNNY   78  51  38 NE7       30.00F
BOGALUSA*        N/A     82  52  35 NE7       30.03F
NEW ROADS*       N/A     79  56  44 N8        30.03F
GONZALES*        N/A     79  55  43 N5        30.00F
HAMMOND*       SUNNY     82  50  32 NE3       30.02F
HOUMA*         SUNNY     81  54  39 N12       30.00F
PORT FOURCHON* CLEAR     77  57  50 NE15      30.03F

$$

MSZ070-080>082-212000-
SOUTHERN MISSISSIPPI

CITY           SKY/WX    TMP DP  RH WIND       PRES   REMARKS
MCCOMB         SUNNY     77  52  41 VRB5      30.03F
GULFPORT       SUNNY     80  53  39 N5        29.99F
BILOXI         SUNNY     79  53  40 NE6       29.99F
PASCAGOULA     SUNNY     81  53  37 N12       29.99F
STENNIS ARPT*  SUNNY     79  46  31 N7        30.01F

$$

COASTAL OBSERVATIONS
LAKE AND NEARSHORE STATIONS

STATION/POSITION TIME  TEMP    WIND        PRES    WAVE
                       AIR SEA DIR/SP/G            HT/PER
                 (UTC) (F)     (DEG/KT/KT) (MB)    (FT/S)
PASCAGOULA       1900   80      30/  7/  9 1015.0
WAVELAND YACHT   1900   72     160/  7/  8 1015.3
GRAND ISLE       1900   76 76   70/ 10/ 13 1016.4
SOUTHWEST PASS   1900   83 84              1015.9
NEW CANAL        1900   73 72   50/  7/  8 1016.5
SHELL BEACH      1900   72 70   20/  9/ 11 1015.9

OFFSHORE STATIONS

STATION/POSITION TIME  TEMP    WIND        PRES    WAVE
                       AIR SEA DIR/SP/G            HT/PER
                 (UTC) (F)     (DEG/KT/KT) (MB)    (FT/S)
64 S DAUPHIN ISL 1801   74 80   50/ 10/ 14 1016.2    2/ 4

$$




USA.gov is the U.S. government's official web portal to all federal, state and local government web resources and services.